SL-12 DEB, 41677

Orbit data source: Space-Track

SL-12 DEB, 41677 is space debris in HEO originally from a launch on Fri, 26 Oct 2007 UTC launched from the Tyuratam Missile And Space Complex (TTMTR). Debris objects in space refer to the collection of defunct objects orbiting the Earth. Examples of debris include non-operational satellites, rocket bodies, and fragments generated from explosions, collisions, or faulty payload assembly.

Loading next visibility...
Identifier
41677, 2007-052J
Orbit
HEO
Country
Flag of CISCIS
Related business
Manufacturer
RKKE
Mission
Spacecraft
Bus & Motor
Unknown
Mass
Unknown
Launch date (UTC)
2007-10-26 (18 years ago)
Launch vehicle
Unknown
Launch site
Tyuratam Missile And Space Complex (TTMTR)
Object type
Payload
Rocket body
Debris
Shape & HBR
Unknown shape, 0.7 m
Radar Cross Section
Medium (>0.1 m² and <1 m²)

Expand to show TLE details & history
Last TLE update: 3 days ago

TLE from 3 days ago
0 SL-12 DEB
1 41677U 07052J   25338.40884071 -.00000009  00000-0 -15956-3 0  9992
2 41677  65.0116 275.0839 5582891 236.0548  58.1462  4.38734880179161
Epoch: 2025-12-04T09:48Z
TLE epoch observation values (Epoch: 2025-12-04T09:48:43.837Z)
Latitude
0.00006°
Longitude
54.42613°
Altitude
9,401.337 km
Speed
5.024 km/s
True Right ascension
18h 20m 17s
True Declination
0° 00' 00"
Sunlit
Object was in daylight at epoch
Visualization orbit readout
Latitude
Unknown
Longitude
Unknown
Altitude
Unknown
Speed
Unknown
Apparent Right ascension
Unknown
Apparent Declination
Unknown
Sunlit
N/A
Visualization observer readout
Local Sidereal Time
14:45:29
Azimuth
Unknown
Elevation
Unknown
Doppler factor
Unknown
Orbital elements
Apogee altitude
18,181.242 km
Perigee altitude
583.437 km
Semi-major axis
15,760.476 km
Eccentricity
0.55829
Inclination
65.0116°
RAAN
275.0839°
Arg. of periapsis
236.0548°
True anomaly
124.04843°
Mean anomaly
58.1462°
Eccentric anomaly
90.13372°
Mean motion
1.09696 °/min
Orbital period
328.18 mins
BSTAR
-0.00015956
Loading maneuver chart data...
Computing Atmospheric mass density...
Loading historical data...
Loading historical data...
Loading historical data...
Loading historical data...
Loading historical data...
Loading historical data...
Loading historical data...

Documentation

Showing up to 5 results
|